Voltar ao catálogo

THOR ABLESTAR DEB

AtivoLEO
NORAD 408·DEBRIS·🇺🇸 United States

Lançado Jun 29, 1961 de Cape Canaveral Space Force Station

Loading…

Próximas Passagens (próximas 24 horas)

TLE

AtualizadoSource: Space-Track

Época: Sep 9, 2026, 00:22 UTC

1 00408U 61015EH  26252.01538274  .00000308  00000-0  38041-3 0  9992
2 00408  66.7842 269.0936 0057763  62.5477 322.1366 13.77217276317244

Acompanhe THOR ABLESTAR DEB em tempo real com AllMySat

Download on the App Store